[[{"header":{"parameterUnit":"m.s-1","parameterCategory":2,"la1":30.2992,"la2":30.254,"lo1":-89.0895,"lo2":-89.0443,"dy":0.0025,"dx":0.0025,"nx":19,"ny":19,"refTime":"2026-03-24T21:00:00:Z","depth":"0","parameterNumber":2,"parameterNumberName":"U-component_of_CURRENTS"},"data":[0,0,0,-0.3332,-0.3334,-0.35,-0.3501,-0.3717,-0.3718,0,0,0,0,0,0,0,0,0,0,0,-0.3272,-0.3272,-0.3332,-0.3335,-0.3499,-0.3501,-0.3717,-0.3718,0,0,0,0,0,0,0,0,0,0,0,-0.3272,-0.3272,-0.3272,-0.3335,-0.3499,-0.3501,-0.3716,-0.3598,0,0,0,0,0,0,0,0,0,0,-0.344,-0.3353,-0.3272,-0.3272,-0.3336,-0.3499,-0.3501,-0.3593,-0.3606,-0.3633,0,-0.3636,0,-0.367,-0.373,-0.3731,0,0,0,-0.3367,-0.3342,-0.34,-0.3272,-0.3337,-0.3499,-0.3434,-0.36,-0.3614,-0.365,-0.364,-0.3648,-0.3673,-0.3731,-0.3732,-0.3667,-0.3666,0,0,-0.3358,-0.3298,-0.339,-0.3408,-0.3351,-0.3429,-0.3439,-0.3609,-0.3603,-0.364,-0.3653,-0.3677,-0.3732,-0.3734,-0.3669,-0.3667,0,0,0,-0.331,-0.3291,-0.3346,-0.3399,-0.3422,-0.3433,-0.3445,-0.3596,-0.3617,-0.3656,-0.3679,-0.3733,-0.3735,-0.3672,-0.3668,-0.358,0,0,0,-0.3306,-0.3261,-0.3341,-0.3307,-0.3417,-0.3504,-0.3427,-0.3606,-0.3626,-0.3678,-0.3733,-0.3737,-0.3674,-0.367,-0.3587,-0.3611,0,0,0,-0.3269,-0.3257,-0.3271,-0.3303,-0.3362,-0.3503,-0.3535,-0.3612,-0.3639,-0.3731,-0.3738,-0.3675,-0.3671,-0.3594,-0.362,-0.3625,0,0,0,-0.3214,-0.3211,-0.3268,-0.3268,-0.336,-0.3407,-0.3535,-0.3605,-0.3673,-0.3734,-0.3674,-0.3669,-0.3596,-0.3624,-0.3628,-0.3454,-0.3422,0,0,-0.3184,-0.3205,-0.3208,-0.3264,-0.3286,-0.3389,-0.3386,-0.3547,-0.3599,-0.363,-0.363,-0.3585,-0.362,-0.3625,-0.3178,-0.3155,0,0,0,-0.3182,-0.3175,-0.3193,-0.3217,-0.3275,-0.3325,-0.3434,-0.3445,-0.3477,-0.3611,-0.3512,-0.3537,-0.3544,-0.3443,-0.3422,-0.3333,-0.3647,-0.3647,-0.3648,-0.3054,-0.3107,-0.3105,-0.3165,-0.3193,-0.327,-0.3297,-0.3316,-0.3378,-0.3328,-0.3408,-0.328,-0.316,-0.3146,-0.3051,-0.3309,-0.3308,-0.3308,-0.3308,-0.2986,-0.2976,-0.3042,-0.3063,-0.3119,-0.3124,-0.3171,-0.3203,-0.3201,-0.3226,-0.3237,-0.3282,-0.3119,-0.3026,-0.3301,-0.3302,-0.3303,-0.3304,-0.3304,-0.2881,-0.2886,-0.2921,-0.2956,-0.2994,-0.3066,-0.3092,-0.3138,-0.3152,-0.3158,-0.3101,-0.3101,-0.3081,-0.317,-0.317,-0.317,-0.3171,-0.3171,-0.3171,-0.2751,-0.2794,-0.279,-0.2857,-0.2883,-0.2953,-0.3058,-0.3075,-0.3055,-0.3022,-0.302,-0.2972,-0.3241,-0.3318,-0.3171,-0.3171,-0.3171,-0.3171,-0.3171,-0.2594,-0.264,-0.2626,-0.265,-0.2732,-0.2724,-0.2899,-0.2879,-0.2919,-0.2856,-0.2714,-0.2942,-0.2985,-0.2998,-0.3066,-0.2865,-0.2865,-0.2865,-0.2865,-0.2473,-0.2503,-0.246,-0.2471,-0.252,-0.2605,-0.2514,-0.2535,-0.2518,-0.2447,-0.2539,-0.2469,-0.2486,-0.2501,-0.2524,-0.2584,-0.2265,-0.2264,-0.2264,-0.2353,-0.2375,-0.2288,-0.2336,-0.2395,-0.2419,-0.224,-0.2139,-0.2153,-0.224,-0.2448,-0.2474,-0.238,-0.2414,-0.2447,-0.2487,-0.2591,0,0]},{"header":{"parameterUnit":"m.s-1","parameterCategory":2,"la1":30.2992,"la2":30.254,"lo1":-89.0895,"lo2":-89.0443,"dy":0.0025,"dx":0.0025,"nx":19,"ny":19,"refTime":"2026-03-24T21:00:00:Z","depth":"0","parameterNumber":3,"parameterNumberName":"V-component_of_CURRENTS"},"data":[0,0,0,-0.0558,-0.0556,-0.0416,-0.0415,-0.004,-0.0036,0,0,0,0,0,0,0,0,0,0,0,-0.06,-0.0599,-0.0558,-0.0556,-0.0416,-0.0415,-0.004,-0.0036,0,0,0,0,0,0,0,0,0,0,0,-0.06,-0.0599,-0.0599,-0.0556,-0.0417,-0.0415,-0.0041,-0.0186,0,0,0,0,0,0,0,0,0,0,-0.0342,-0.0428,-0.06,-0.0599,-0.0555,-0.0417,-0.0415,-0.0195,-0.0177,-0.006,0,-0.0064,0,-0.0056,-0.001,-0.0009,0,0,0,-0.0516,-0.0444,-0.0409,-0.0599,-0.0555,-0.0417,-0.0468,-0.0186,-0.0165,-0.0035,-0.0059,-0.0047,-0.005,-0.0008,-0.0006,0.0231,0.0231,0,0,-0.0523,-0.0555,-0.0424,-0.0398,-0.0546,-0.0473,-0.0464,-0.0175,-0.0159,-0.0058,-0.0039,-0.0044,-0.0005,-0.0002,0.0231,0.0231,0,0,0,-0.0573,-0.056,-0.0536,-0.0412,-0.041,-0.047,-0.046,-0.0171,-0.0166,-0.0035,-0.0039,-0.0003,0.0002,0.0232,0.0231,0.0052,0,0,0,-0.0575,-0.0592,-0.054,-0.0554,-0.0418,-0.0318,-0.0462,-0.0185,-0.0154,-0.0041,-0.0003,0.0005,0.0232,0.0231,0.0057,-0.0002,0,0,0,-0.0601,-0.0594,-0.0589,-0.0557,-0.0517,-0.0324,-0.03,-0.0179,-0.0156,-0.0009,0.0006,0.0232,0.0232,0.0062,0.0007,0.0071,0,0,0,-0.062,-0.0648,-0.059,-0.0616,-0.0519,-0.0462,-0.0302,-0.0222,-0.0115,-0.0001,0.0232,0.0231,0.0064,0.0013,0.0074,0.0181,0.0175,0,0,-0.0674,-0.0655,-0.0672,-0.0619,-0.0612,-0.0477,-0.0428,-0.0222,-0.0077,0.016,0.0165,0.0055,0.0008,0.0072,0.014,0.0135,0,0,0,-0.0702,-0.0712,-0.07,-0.068,-0.0613,-0.0527,-0.0354,-0.0264,-0.0087,-0.0023,0.0092,0.0069,0.0115,0.0187,0.0183,0.0423,0.0228,0.0228,0.0228,-0.079,-0.0766,-0.0787,-0.0739,-0.0691,-0.0543,-0.0457,-0.0286,-0.0151,-0.0119,-0.0053,-0.0093,-0.0022,-0.0023,0.022,-0.0032,-0.0033,-0.0033,-0.0034,-0.0883,-0.0902,-0.0851,-0.0865,-0.0767,-0.0702,-0.0508,-0.0418,-0.0244,-0.0177,-0.0123,0.0023,-0.0038,0.0224,-0.0045,-0.0043,-0.0041,-0.004,-0.0039,-0.0948,-0.0957,-0.0959,-0.0966,-0.092,-0.0797,-0.0699,-0.0557,-0.0376,-0.0344,-0.0126,-0.0121,0.01,-0.0283,-0.0283,-0.0283,-0.0283,-0.0283,-0.0283,-0.1021,-0.1021,-0.1072,-0.1065,-0.1068,-0.1009,-0.081,-0.0676,-0.0423,-0.0273,-0.027,0.0128,-0.0165,-0.0167,-0.0284,-0.0284,-0.0284,-0.0284,-0.0284,-0.1102,-0.1106,-0.119,-0.1217,-0.122,-0.1158,-0.0974,-0.062,-0.0441,-0.0279,0.0157,-0.0179,-0.0076,-0.0069,-0.0064,-0.0147,-0.0147,-0.0147,-0.0147,-0.1156,-0.1165,-0.128,-0.134,-0.1354,-0.1227,-0.0973,-0.0586,-0.002,0.0276,0.0345,0.0414,0.0398,0.0535,0.0528,0.0548,0.0623,0.0624,0.0625,-0.1203,-0.1242,-0.1324,-0.1388,-0.1412,-0.127,-0.0985,-0.0484,0.0329,0.0678,0.0654,0.0622,0.0741,0.0697,0.0926,0.0897,0.0936,0,0]}],[{"header":{"parameterUnit":"m.s-1","parameterCategory":2,"la1":30.2992,"la2":30.254,"lo1":-89.0895,"lo2":-89.0443,"dy":0.0025,"dx":0.0025,"nx":19,"ny":19,"refTime":"2026-03-24T21:00:00:Z","depth":"2","parameterNumber":2,"parameterNumberName":"U-component_of_CURRENTS"},"data":[0,0,0,-0.3002,-0.3004,-0.3128,-0.3129,-0.3246,-0.3246,0,0,0,0,0,0,0,0,0,0,0,-0.2945,-0.2945,-0.3001,-0.3005,-0.3128,-0.3129,-0.3245,-0.3246,0,0,0,0,0,0,0,0,0,0,0,-0.2945,-0.2945,-0.2946,-0.3005,-0.3128,-0.3129,-0.3245,-0.3162,0,0,0,0,0,0,0,0,0,0,-0.3048,-0.2982,-0.2945,-0.2946,-0.3006,-0.3128,-0.3129,-0.3159,-0.3168,-0.3177,0,-0.3188,0,-0.3225,-0.3253,-0.3254,0,0,0,-0.3006,-0.2975,-0.3029,-0.2946,-0.3007,-0.3128,-0.3073,-0.3164,-0.3174,-0.3188,-0.319,-0.3196,-0.3227,-0.3254,-0.3254,-0.3194,-0.3193,0,0,-0.2999,-0.2951,-0.3022,-0.3035,-0.3028,-0.3069,-0.3077,-0.317,-0.3162,-0.3191,-0.3199,-0.3229,-0.3254,-0.3255,-0.3196,-0.3194,0,0,0,-0.2979,-0.2945,-0.2998,-0.3029,-0.3058,-0.3072,-0.3081,-0.3158,-0.3181,-0.3201,-0.3231,-0.3255,-0.3256,-0.3197,-0.3195,-0.3154,0,0,0,-0.2975,-0.2935,-0.2994,-0.2965,-0.3056,-0.3111,-0.3066,-0.3174,-0.3187,-0.323,-0.3255,-0.3257,-0.3199,-0.3196,-0.3158,-0.3177,0,0,0,-0.2941,-0.2931,-0.2947,-0.2962,-0.302,-0.3111,-0.3139,-0.3178,-0.3205,-0.3254,-0.3258,-0.32,-0.3196,-0.3162,-0.3182,-0.318,0,0,0,-0.2887,-0.2888,-0.2944,-0.2947,-0.3018,-0.3057,-0.3139,-0.3181,-0.3216,-0.3256,-0.3198,-0.3195,-0.3163,-0.3185,-0.3182,-0.3,-0.2974,0,0,-0.286,-0.2883,-0.2886,-0.2941,-0.2966,-0.3041,-0.3038,-0.3131,-0.3159,-0.317,-0.3169,-0.3157,-0.3183,-0.318,-0.2805,-0.2786,0,0,0,-0.286,-0.2857,-0.2874,-0.2901,-0.2954,-0.2995,-0.3063,-0.3069,-0.3081,-0.3166,-0.3099,-0.3117,-0.3118,-0.3009,-0.2992,-0.3179,-0.318,-0.318,-0.318,-0.2746,-0.2796,-0.2797,-0.2857,-0.2883,-0.295,-0.2969,-0.2978,-0.3015,-0.2982,-0.3039,-0.2952,-0.2829,-0.2816,-0.2968,-0.2968,-0.2967,-0.2967,-0.2967,-0.2686,-0.2679,-0.2743,-0.2767,-0.2826,-0.2834,-0.2882,-0.2907,-0.2908,-0.2923,-0.2925,-0.2915,-0.2795,-0.2963,-0.2963,-0.2964,-0.2965,-0.2965,-0.2965,-0.2592,-0.2598,-0.2635,-0.2675,-0.2719,-0.2791,-0.2816,-0.2867,-0.2882,-0.289,-0.2796,-0.2794,-0.2993,-0.2894,-0.2894,-0.2894,-0.2894,-0.2894,-0.2894,-0.2475,-0.2518,-0.252,-0.2589,-0.2616,-0.2684,-0.2788,-0.2802,-0.2778,-0.2748,-0.2746,-0.2929,-0.2931,-0.2987,-0.2895,-0.2894,-0.2894,-0.2894,-0.2894,-0.2334,-0.238,-0.2372,-0.2397,-0.2472,-0.2445,-0.2616,-0.2586,-0.2629,-0.2561,-0.2656,-0.2662,-0.2675,-0.2685,-0.2733,-0.2581,-0.2581,-0.2581,-0.2581,-0.2225,-0.2255,-0.2219,-0.2227,-0.2259,-0.2321,-0.2201,-0.2197,-0.2277,-0.2265,-0.2279,-0.2218,-0.2237,-0.2226,-0.2246,-0.2286,-0.2018,-0.2017,-0.2016,-0.2118,-0.2138,-0.2059,-0.2101,-0.2134,-0.2122,-0.1905,-0.1737,-0.1779,-0.1999,-0.223,-0.2534,-0.248,-0.2496,-0.2511,-0.2531,-0.2609,0,0]},{"header":{"parameterUnit":"m.s-1","parameterCategory":2,"la1":30.2992,"la2":30.254,"lo1":-89.0895,"lo2":-89.0443,"dy":0.0025,"dx":0.0025,"nx":19,"ny":19,"refTime":"2026-03-24T21:00:00:Z","depth":"2","parameterNumber":3,"parameterNumberName":"V-component_of_CURRENTS"},"data":[0,0,0,-0.0595,-0.0594,-0.0487,-0.0486,-0.024,-0.0238,0,0,0,0,0,0,0,0,0,0,0,-0.0628,-0.0628,-0.0595,-0.0594,-0.0487,-0.0486,-0.0241,-0.0238,0,0,0,0,0,0,0,0,0,0,0,-0.0628,-0.0628,-0.0628,-0.0594,-0.0487,-0.0486,-0.0241,-0.0342,0,0,0,0,0,0,0,0,0,0,-0.0456,-0.0516,-0.0628,-0.0628,-0.0593,-0.0488,-0.0486,-0.0348,-0.0336,-0.0266,0,-0.0269,0,-0.0259,-0.0222,-0.0221,0,0,0,-0.0564,-0.0527,-0.05,-0.0628,-0.0593,-0.0488,-0.0527,-0.0342,-0.0328,-0.025,-0.0265,-0.0257,-0.0255,-0.022,-0.0219,-0.0045,-0.0045,0,0,-0.057,-0.0596,-0.0511,-0.0493,-0.0586,-0.0531,-0.0524,-0.0334,-0.0325,-0.0265,-0.0252,-0.0251,-0.0219,-0.0217,-0.0045,-0.0045,0,0,0,-0.0607,-0.06,-0.058,-0.0502,-0.0498,-0.0528,-0.0521,-0.0333,-0.0328,-0.0249,-0.0248,-0.0217,-0.0214,-0.0045,-0.0045,-0.0169,0,0,0,-0.0609,-0.0624,-0.0583,-0.0595,-0.0503,-0.0431,-0.0524,-0.0341,-0.032,-0.0249,-0.0217,-0.0212,-0.0045,-0.0045,-0.0166,-0.022,0,0,0,-0.0629,-0.0625,-0.0621,-0.0597,-0.0565,-0.0434,-0.0417,-0.0336,-0.0319,-0.0221,-0.0211,-0.0045,-0.0045,-0.0163,-0.0215,-0.0171,0,0,0,-0.0646,-0.0674,-0.0622,-0.0649,-0.0567,-0.0526,-0.0418,-0.0365,-0.0295,-0.0216,-0.0045,-0.0045,-0.0162,-0.0211,-0.0169,-0.0105,-0.0109,0,0,-0.0699,-0.0681,-0.0699,-0.0651,-0.0651,-0.0537,-0.05,-0.0364,-0.0259,-0.0094,-0.0091,-0.0167,-0.0214,-0.017,-0.0093,-0.0098,0,0,0,-0.0727,-0.0737,-0.0728,-0.0714,-0.0659,-0.0587,-0.0459,-0.0383,-0.0248,-0.0221,-0.0127,-0.0152,-0.0121,-0.0077,-0.0081,-0.0044,-0.0044,-0.0044,-0.0044,-0.081,-0.0789,-0.0812,-0.0771,-0.0731,-0.0606,-0.0532,-0.0391,-0.0293,-0.0254,-0.0225,-0.0239,-0.0195,-0.0197,-0.019,-0.019,-0.0191,-0.0191,-0.0191,-0.0897,-0.0916,-0.0871,-0.0888,-0.08,-0.0746,-0.0572,-0.0493,-0.0343,-0.029,-0.0252,-0.0176,-0.0208,-0.02,-0.0199,-0.0197,-0.0196,-0.0196,-0.0195,-0.0958,-0.0966,-0.097,-0.098,-0.0942,-0.0833,-0.0754,-0.0616,-0.0449,-0.0419,-0.0275,-0.0271,-0.0301,-0.0375,-0.0375,-0.0375,-0.0375,-0.0375,-0.0375,-0.1024,-0.1025,-0.1075,-0.1072,-0.1078,-0.1032,-0.0859,-0.0745,-0.0523,-0.0384,-0.0382,-0.0299,-0.0293,-0.0307,-0.0376,-0.0376,-0.0376,-0.0376,-0.0376,-0.11,-0.1103,-0.1186,-0.1215,-0.1228,-0.1185,-0.1029,-0.0738,-0.0582,-0.0445,-0.0322,-0.0323,-0.0256,-0.0251,-0.026,-0.0313,-0.0313,-0.0313,-0.0313,-0.115,-0.1159,-0.1272,-0.1336,-0.1361,-0.1258,-0.1064,-0.074,-0.043,-0.0278,-0.028,-0.0256,-0.0259,-0.019,-0.0186,-0.0192,-0.0228,-0.0228,-0.0228,-0.1195,-0.1232,-0.1316,-0.1383,-0.1419,-0.1311,-0.1085,-0.0658,-0.0253,-0.0229,-0.0303,-0.03,-0.0268,-0.0272,-0.0163,-0.0159,-0.0168,0,0]}],[{"header":{"parameterUnit":"m.s-1","parameterCategory":2,"la1":30.2992,"la2":30.254,"lo1":-89.0895,"lo2":-89.0443,"dy":0.0025,"dx":0.0025,"nx":19,"ny":19,"refTime":"2026-03-24T21:00:00:Z","depth":"4","parameterNumber":2,"parameterNumberName":"U-component_of_CURRENTS"},"data":[0,0,0,-0.2197,-0.2202,-0.2393,-0.2394,-0.2363,-0.2362,0,0,0,0,0,0,0,0,0,0,0,-0.2125,-0.2126,-0.2197,-0.2202,-0.2393,-0.2394,-0.2363,-0.2362,0,0,0,0,0,0,0,0,0,0,0,-0.2124,-0.2126,-0.2128,-0.2203,-0.2393,-0.2394,-0.2363,-0.2284,0,0,0,0,0,0,0,0,0,0,-0.2132,-0.2108,-0.2125,-0.2128,-0.2204,-0.2393,-0.2394,-0.2283,-0.2289,-0.2201,0,-0.2248,0,-0.2306,-0.2355,-0.2354,0,0,0,-0.219,-0.2104,-0.2159,-0.2128,-0.2206,-0.2393,-0.2303,-0.2289,-0.2295,-0.2207,-0.2249,-0.225,-0.2306,-0.2354,-0.2353,-0.2283,-0.2283,0,0,-0.2179,-0.2145,-0.2156,-0.2164,-0.2272,-0.2297,-0.231,-0.2295,-0.2298,-0.2249,-0.2251,-0.2305,-0.2353,-0.2352,-0.2283,-0.2283,0,0,0,-0.2157,-0.2137,-0.2199,-0.2163,-0.2222,-0.2303,-0.2317,-0.2299,-0.2322,-0.2251,-0.2305,-0.2353,-0.2351,-0.2283,-0.2283,-0.2345,0,0,0,-0.215,-0.2126,-0.2195,-0.2174,-0.2224,-0.2301,-0.232,-0.2324,-0.2325,-0.2305,-0.2352,-0.235,-0.2283,-0.2283,-0.2343,-0.2344,0,0,0,-0.2113,-0.2122,-0.2152,-0.2172,-0.2264,-0.2304,-0.2328,-0.2327,-0.2356,-0.2354,-0.235,-0.2283,-0.2283,-0.2341,-0.2341,-0.2333,0,0,0,-0.206,-0.2086,-0.2151,-0.2189,-0.2262,-0.2336,-0.2329,-0.2384,-0.2389,-0.2352,-0.2283,-0.2283,-0.2341,-0.234,-0.2332,-0.204,0,0,0,-0.2052,-0.2084,-0.2104,-0.2167,-0.223,-0.2308,-0.2353,-0.237,-0.2351,-0.2265,-0.2266,-0.2343,-0.2341,-0.2333,-0.2048,0,0,0,0,-0.2073,-0.2089,-0.2119,-0.2181,-0.2253,-0.2325,-0.2369,-0.2382,-0.2382,-0.236,-0.2328,-0.2323,-0.2317,-0.2143,-0.2284,-0.2284,-0.2284,-0.2284,-0.2284,-0.1998,-0.2054,-0.2089,-0.217,-0.2225,-0.2328,-0.2372,-0.2387,-0.2373,-0.2395,-0.2364,-0.2382,-0.2201,-0.2365,-0.2365,-0.2365,-0.2365,-0.2366,-0.2366,-0.1962,-0.1972,-0.2066,-0.2126,-0.222,-0.2274,-0.2354,-0.2392,-0.2404,-0.2402,-0.2393,-0.2207,-0.2371,-0.237,-0.2369,-0.2369,-0.2368,-0.2368,-0.2368,-0.1883,-0.1896,-0.1972,-0.2066,-0.2161,-0.2267,-0.2307,-0.2391,-0.2426,-0.2442,-0.2228,-0.24,-0.2405,-0.2442,-0.2442,-0.2442,-0.2442,-0.2442,-0.2442,-0.1763,-0.1837,-0.1883,-0.2004,-0.2068,-0.2162,-0.2295,-0.2301,-0.2371,-0.2234,-0.2449,-0.2406,-0.2404,-0.2407,-0.2442,-0.2442,-0.2442,-0.2442,-0.2442,-0.1636,-0.1704,-0.1744,-0.181,-0.1932,-0.1973,-0.2154,-0.2107,-0.209,-0.2008,-0.2109,-0.2125,-0.2063,-0.2069,-0.2058,-0.1991,-0.1987,-0.1984,0,-0.1538,-0.1578,-0.1614,-0.1658,-0.1683,-0.1836,-0.1746,-0.1796,-0.1843,-0.1785,-0.2082,-0.2198,-0.2207,-0.2141,-0.214,-0.2127,0,0,0,-0.1452,-0.1482,-0.1456,-0.153,-0.1547,-0.1569,-0.1702,-0.1632,-0.1867,-0.1747,-0.1892,-0.1916,-0.2239,-0.2441,-0.2385,-0.2382,-0.2383,0,0]},{"header":{"parameterUnit":"m.s-1","parameterCategory":2,"la1":30.2992,"la2":30.254,"lo1":-89.0895,"lo2":-89.0443,"dy":0.0025,"dx":0.0025,"nx":19,"ny":19,"refTime":"2026-03-24T21:00:00:Z","depth":"4","parameterNumber":3,"parameterNumberName":"V-component_of_CURRENTS"},"data":[0,0,0,-0.0484,-0.0484,-0.0448,-0.0447,-0.0382,-0.0381,0,0,0,0,0,0,0,0,0,0,0,-0.0495,-0.0495,-0.0484,-0.0484,-0.0448,-0.0447,-0.0382,-0.0381,0,0,0,0,0,0,0,0,0,0,0,-0.0495,-0.0495,-0.0496,-0.0483,-0.0448,-0.0447,-0.0382,-0.041,0,0,0,0,0,0,0,0,0,0,-0.0445,-0.0468,-0.0495,-0.0496,-0.0483,-0.0448,-0.0447,-0.0411,-0.0408,-0.0398,0,-0.0405,0,-0.0399,-0.0378,-0.0378,0,0,0,-0.0466,-0.0471,-0.0462,-0.0496,-0.0483,-0.0448,-0.0459,-0.0409,-0.0406,-0.0394,-0.0404,-0.0401,-0.0398,-0.0378,-0.0378,-0.03,-0.03,0,0,-0.0468,-0.0484,-0.0464,-0.046,-0.049,-0.046,-0.0458,-0.0407,-0.041,-0.0403,-0.04,-0.0397,-0.0377,-0.0377,-0.0301,-0.03,0,0,0,-0.0486,-0.0485,-0.0477,-0.0463,-0.0462,-0.046,-0.0457,-0.0412,-0.041,-0.0399,-0.0397,-0.0377,-0.0377,-0.0301,-0.03,-0.0352,0,0,0,-0.0486,-0.0497,-0.0478,-0.0486,-0.0464,-0.0441,-0.0463,-0.0413,-0.0407,-0.0397,-0.0377,-0.0376,-0.0302,-0.0301,-0.0352,-0.0403,0,0,0,-0.0494,-0.0497,-0.0498,-0.0487,-0.048,-0.0441,-0.0436,-0.0411,-0.0406,-0.0378,-0.0376,-0.0302,-0.0301,-0.0352,-0.0401,-0.038,0,0,0,-0.0503,-0.0531,-0.0499,-0.053,-0.0481,-0.0471,-0.0436,-0.0425,-0.0406,-0.0377,-0.0302,-0.03,-0.0351,-0.0399,-0.0379,-0.0405,0,0,0,-0.0546,-0.0536,-0.0556,-0.0527,-0.0545,-0.0474,-0.0462,-0.0425,-0.0377,-0.0315,-0.0313,-0.0352,-0.0401,-0.038,-0.0335,0,0,0,0,-0.0575,-0.0587,-0.0588,-0.0591,-0.0565,-0.0525,-0.0469,-0.0418,-0.0351,-0.0363,-0.0313,-0.0342,-0.0328,-0.0338,-0.0295,-0.0295,-0.0295,-0.0295,-0.0295,-0.0638,-0.0631,-0.066,-0.0641,-0.0625,-0.0551,-0.0504,-0.0415,-0.0371,-0.033,-0.0355,-0.0339,-0.0349,-0.0304,-0.0305,-0.0305,-0.0305,-0.0305,-0.0305,-0.0706,-0.0725,-0.0708,-0.0738,-0.0687,-0.0662,-0.0535,-0.0478,-0.038,-0.0347,-0.0328,-0.0356,-0.0309,-0.0308,-0.0308,-0.0307,-0.0307,-0.0307,-0.0307,-0.0745,-0.0754,-0.0777,-0.081,-0.0803,-0.0737,-0.069,-0.058,-0.0451,-0.0428,-0.0399,-0.0362,-0.0391,-0.0405,-0.0405,-0.0405,-0.0405,-0.0405,-0.0405,-0.0776,-0.0796,-0.0855,-0.0882,-0.0909,-0.0894,-0.0781,-0.0701,-0.0564,-0.0469,-0.0443,-0.0372,-0.0369,-0.0394,-0.0407,-0.0407,-0.0407,-0.0406,-0.0406,-0.0816,-0.0837,-0.0925,-0.0974,-0.1027,-0.1003,-0.092,-0.0735,-0.0645,-0.0538,-0.0462,-0.0459,-0.0441,-0.0436,-0.0464,-0.0498,-0.0498,-0.0499,0,-0.0841,-0.0857,-0.0981,-0.1063,-0.1101,-0.1059,-0.0945,-0.0827,-0.0644,-0.0637,-0.0643,-0.0567,-0.056,-0.055,-0.0546,-0.0584,0,0,0,-0.0864,-0.0906,-0.0992,-0.1082,-0.113,-0.0991,-0.0906,-0.0834,-0.0679,-0.0582,-0.0509,-0.0506,-0.0509,-0.0413,-0.0378,-0.0374,-0.0412,0,0]}]]